• Join FlightAware (Why Join?)
  • Login
  • US Flag 
Gobble Gobble! 
08:47AM EST


 

Airport Tracker/Info


-or-


 

Live Flight TrackerFlight Track Log ✈ AWE1940 ✈ 02-May-2013 ✈ KCLT - KALB

Flight Track Log - Related Links

Times and Time Zones

All times are in EDT time to prevent confusion due to time zone crossing. See the AWE1940 flight status page for this flight to view local times or setup timezone preferences in your user account.

Time Position Orientation Groundspeed Altitude Reporting Facility
EDT Latitude Longitude Course Direction KTS MPH feet Rate Location/Type
10:37PM 35.2306 -80.9392 72° East 141 162 1,700  Level Atlanta Center
10:38PM 35.2694 -80.9072 34° Northeast 190 219 3,800 2,100 Climbing Atlanta Center
10:39PM 35.2864 -80.8406 73° East 254 292 6,000 2,640 Climbing Atlanta Center
10:40PM 35.1203 -80.6198 29° Northeast  Level FlightAware Approximate
10:40PM 35.3031 -80.7611 76° East 263 303 9,000  Level Atlanta Center
10:41PM 35.2194 -80.5528 30° Northeast  Level FlightAware Approximate
10:41PM 35.3233 -80.6583 76° East 320 368 11,200  Level Atlanta Center
10:42PM 35.3167 -80.4826 90° East  Level FlightAware Approximate
10:42PM 35.3456 -80.5581 75° East 348 400 14,000  Level Atlanta Center
10:43PM 35.3591 -80.3691 72° East  Level FlightAware Approximate
10:43PM 35.3694 -80.4425 76° East 345 397 16,500  Level Atlanta Center
10:44PM 35.3950 -80.3242 75° East 355 409 18,500 2,040 Climbing Atlanta Center
10:46PM 35.4358 -80.1247 76° East 395 455 21,900 2,220 Climbing Washington Center
10:47PM 35.4725 -79.9814 73° East 395 455 24,300 1,920 Climbing Washington Center
10:48PM 35.5086 -79.8456 72° East 401 461 25,800 1,380 Climbing Washington Center
10:49PM 35.5450 -79.7069 72° East 412 474 27,100 1,260 Climbing Washington Center
10:50PM 35.5786 -79.5733 73° East 432 497 28,400 1,200 Climbing Washington Center
10:51PM 35.6142 -79.4397 72° East 449 517 29,500 1,260 Climbing Washington Center
10:52PM 35.6822 -79.2717 63° Northeast 456 525 30,900 1,380 Climbing Washington Center
10:53PM 35.7408 -79.1236 64° Northeast 468 539 32,400 1,380 Climbing Washington Center
10:54PM 35.7994 -78.9775 64° Northeast 468 539 33,700 1,320 Climbing Washington Center
10:55PM 35.8578 -78.8289 64° Northeast 474 545 35,100 1,200 Climbing Washington Center
10:56PM 35.9242 -78.6881 60° Northeast 474 545 36,200 900 Climbing Washington Center
10:57PM 35.9858 -78.5594 59° Northeast 474 545 37,000 900 Climbing Washington Center
10:58PM 36.0539 -78.4156 60° Northeast 474 545 38,000 960 Climbing Washington Center
10:59PM 36.1219 -78.2767 59° Northeast 474 545 39,000 480 Climbing Washington Center
11:00PM 36.1875 -78.1372 60° Northeast 474 545 39,000  Level Washington Center
11:01PM 36.2528 -78.0028 59° Northeast 463 533 39,000 -420 Level Washington Center
11:02PM 36.3181 -77.8656 59° Northeast 458 527 38,200 -1,620 Descending Washington Center
11:03PM 36.3833 -77.7256 60° Northeast 458 527 35,800 -1,680 Descending Washington Center
11:04PM 36.4528 -77.5700 61° Northeast 458 527 35,000 -420 Descending Washington Center
11:05PM 36.5175 -77.4294 60° Northeast 458 527 35,000  Level Washington Center
11:06PM 36.5842 -77.2914 59° Northeast 458 527 35,000  Level Washington Center
11:07PM 36.6508 -77.1531 59° Northeast 458 527 35,000  Level Washington Center
11:08PM 36.7214 -77.0197 57° Northeast 458 527 35,000  Level Washington Center
11:09PM 36.8100 -76.9253 40° Northeast 457 526 35,000  Level Washington Center
11:10PM 36.9111 -76.8336 36° Northeast 444 511 35,000  Level Washington Center
11:11PM 37.0122 -76.7417 36° Northeast 449 517 35,000  Level Washington Center
11:12PM 37.1153 -76.6494 36° Northeast 449 517 35,000  Level Washington Center
11:13PM 37.2161 -76.5569 36° Northeast 449 517 35,000  Level Washington Center
11:14PM 37.3169 -76.4642 36° Northeast 449 517 35,000  Level Washington Center
11:15PM 37.4178 -76.3736 35° Northeast 454 522 35,000  Level Washington Center
11:16PM 37.5183 -76.2806 36° Northeast 454 522 35,000  Level Washington Center
11:17PM 37.6294 -76.1792 36° Northeast 454 522 35,000  Level Washington Center
11:18PM 37.7217 -76.1011 34° Northeast 448 516 35,000  Level Washington Center
11:19PM 37.8283 -75.9942 38° Northeast 448 516 35,000  Level Washington Center
11:20PM 37.9289 -75.8997 37° Northeast 448 516 35,000  Level Washington Center
11:21PM 38.0333 -75.8158 32° Northeast 448 516 35,000  Level Washington Center
11:22PM 38.1292 -75.7106 41° Northeast 448 516 35,000  Level Washington Center
11:23PM 38.2294 -75.6181 36° Northeast 448 516 35,000  Level Washington Center
11:24PM 38.3233 -75.5414 33° Northeast 448 516 35,000 -60 Level Washington Center
11:25PM 38.4317 -75.4750 26° Northeast 436 502 34,900 -60 Descending Washington Center
11:26PM 38.5483 -75.4297 17° North 426 490 34,900  Level Washington Center
11:27PM 38.6586 -75.3764 21° North 431 496 34,900  Level Washington Center
11:28PM 38.7775 -75.3333 16° North 426 490 35,000  Climbing Washington Center
11:29PM 38.8919 -75.2850 18° North 426 490 35,000  Level Washington Center
11:30PM 39.0064 -75.2364 18° North 421 484 35,000  Level Washington Center
11:31PM 39.1211 -75.1903 17° North 421 484 35,000 -60 Level Washington Center
11:32PM 39.2314 -75.1414 19° North 421 484 34,900 -60 Descending Washington Center
11:33PM 39.3372 -75.0764 25° Northeast 421 484 34,900  Level Washington Center
11:34PM 39.4347 -74.9817 37° Northeast 421 484 35,000  Climbing Washington Center
11:35PM 39.5303 -74.8867 37° Northeast 426 490 35,000  Level Washington Center
11:36PM 39.6233 -74.7914 38° Northeast 431 496 35,000 -60 Level Washington Center
11:38PM 39.8069 -74.6161 36° Northeast 438 504 34,900  Descending New York Center
11:39PM 39.8975 -74.5264 37° Northeast 426 490 35,000  Climbing New York Center
11:40PM 39.9922 -74.4258 39° Northeast 419 482 35,000 -240 Level New York Center
11:41PM 40.1000 -74.3828 17° North 406 467 34,600 -720 Descending New York Center
11:42PM 40.2153 -74.3589 North 406 467 33,600 -840 Descending New York Center
11:43PM 40.3328 -74.3350 North 411 473 33,000 -300 Descending New York Center
11:44PM 40.4439 -74.3108 North 411 473 33,000  Level New York Center
11:46PM 40.7144 -74.2500 10° North 406 467 33,000 -60 Level Boston Center
11:47PM 40.8167 -74.2364 North 414 476 32,900  Descending Boston Center
11:48PM 40.9319 -74.2094 10° North 408 470 33,000 -360 Climbing Boston Center
11:49PM 41.0447 -74.1878 North 408 470 32,200 -1,380 Descending Boston Center
11:50PM 41.1536 -74.1603 11° North 408 470 30,300 -2,160 Descending Boston Center
11:51PM 41.2644 -74.1328 11° North 408 470 27,900 -2,340 Descending Boston Center
11:52PM 41.3689 -74.1108 North 401 461 25,700 -1,920 Descending Boston Center
11:53PM 41.4714 -74.0886 North 379 436 24,100 -1,560 Descending Boston Center
11:54PM 41.5697 -74.0689 North 366 421 22,600 -1,500 Descending Boston Center
11:55PM 41.6636 -74.0461 10° North 359 413 21,100 -1,500 Descending Boston Center
11:56PM 41.7536 -74.0261 North 339 390 19,600 -1,560 Descending Boston Center
11:57PM 41.8519 -74.0092 North 331 381 18,100 -1,320 Descending Boston Center
11:58PM 41.9417 -73.9864 11° North 321 369 17,000 -1,200 Descending Boston Center
11:59PM 42.0192 -73.9686 10° North 316 364 15,700 -1,320 Descending Boston Center
12:00AM 42.1047 -73.9483 10° North 316 364 14,400 -1,380 Descending Boston Center
12:01AM 42.1969 -73.9281 North 316 364 13,000 -1,380 Descending Boston Center
12:02AM 42.2700 -73.9131 North 300 345 11,700 -1,020 Descending Boston Center
12:03AM 42.3578 -73.8928 10° North 290 334 11,000 -660 Descending Boston Center
12:04AM 42.4308 -73.8747 10° North 290 334 10,400 -1,200 Descending Boston Center
12:05AM 42.5103 -73.8681 North 278 320 8,600 -1,740 Descending Boston Center
12:06AM 42.5769 -73.8697 359° North 271 312 7,000 -1,920 Descending Boston Center
12:07AM 42.6644 -73.8658 North 271 312 4,800 -2,160 Descending Boston Center
12:08AM 42.7417 -73.8706 357° North 271 312 2,700 -2,100 Descending Boston Center